sat.trackr.live / text

‹ back to catalog

STARLINK-32615

NORAD 62034 · 2024-216C

PAYLOAD ACTIVE UNKNOWN

§ Identity

Operator
Country
US
Launch date
2024-11-21
Launch site
AFETR
Launch vehicle
Mass (kg)
RCS (m²)

Purposes: comms

External: N2YO · Heavens-Above · Gunter

§ Orbital elements

Epoch: 2026-05-24T12:48:29.170944Z

Period
94.27 min
Inclination
43.0005°
Eccentricity
0.0001538
Mean motion
15.27588802 rev/d
Perigee alt
482.0 km
Apogee alt
484.1 km
Semi-major
6,861.2 km
B*
4.2944e-4
RAAN
188.1125°
Arg perigee
272.5813°
Mean anomaly
87.4863°
Rev number
8,431

§ Raw data

STARLINK-326151 62034U 24216C   26144.53367096  .00011577  00000+0  42944-3 0  99922 62034  43.0005 188.1125 0001538 272.5813  87.4863 15.27588802 84318

JSON: /api/v1/satellites/62034 · /tle

For live sub-satellite position, see the globe view (requires WebGL).

§ Visibility from observer

Set your observer location to see the next 7 days of passes ≥ 10°. The values pass through the URL so the page stays shareable.

No JS? Fill the form by hand. The geolocation button needs JavaScript.